STARLINK-30434, 57875

Orbit data source: Space-Track

STARLINK-30434, 57875 is a payload satellite owned by SpaceX/Seattle (US) in LEO that was launched on Sat, 16 Sep 2023 UTC via an FALCON 9 launch vehicle from the Air Force Eastern Test Range (AFETR). Payload-class satellites include a variety of spacecraft equipped with specific instruments for various scientific and technological missions. These include communications satellites like Starlink; space stations such as the ISS; scientific satellites like the Hubble; Earth observation satellites from companies like Planet Labs, Umbra, and HawkEye 360; GPS; miniature CubeSats for education and research; and military/defense satellites.

Loading next visibility...
Identifier
57875, 2023-144M
Orbit
LEO
Country
Flag of USUS
Related business
Manufacturer
SpaceX/Seattle
Mission
Operational Commercial Communications
Bus & Motor
STARLINK V2M, Unknown motor
Mass
730 kg wet, ~700 kg dry
Launch date (UTC)
2023-09-16 (3 years ago)
Launch vehicle
FALCON 9
Launch site
Air Force Eastern Test Range (AFETR)
Object type
Payload
Rocket body
Debris
Shape & HBR
Box + 2 Pan, 17.7 m
Radar Cross Section
33.884 m², Large (>1 m²)

Expand to show TLE details & history
Last TLE update: 2 days ago

TLE from 2 days ago
0 STARLINK-30434
1 57875U 23144M   26171.40514579 -.00003079  00000-0 -10243-3 0  9992
2 57875  43.0028  65.3593 0000350 284.2067  75.8746 15.27575511153352
Epoch: 2026-06-20T09:43Z
TLE epoch observation values (Epoch: 2026-06-20T09:43:24.596Z)
Latitude
0.00001°
Longitude
10.88658°
Altitude
482.78 km
Speed
7.626 km/s
True Right ascension
04h 21m 26s
True Declination
0° 00' 00"
Sunlit
Object was in daylight at epoch
Visualization orbit readout
Latitude
Unknown
Longitude
Unknown
Altitude
Unknown
Speed
Unknown
Apparent Right ascension
Unknown
Apparent Declination
Unknown
Sunlit
N/A
Visualization observer readout
Local Sidereal Time
00:51:32
Azimuth
Unknown
Elevation
Unknown
Doppler factor
Unknown
Orbital elements
Apogee altitude
485.247 km
Perigee altitude
484.767 km
Semi-major axis
6,863.144 km
Eccentricity
0.00004
Inclination
43.0028°
RAAN
65.3593°
Arg. of periapsis
284.2067°
True anomaly
75.87849°
Mean anomaly
75.8746°
Eccentric anomaly
75.87654°
Mean motion
3.81732 °/min
Orbital period
94.31 mins
BSTAR
-0.00010243
Loading maneuver chart data...
Computing Atmospheric mass density...
Loading historical data...
Loading historical data...
Loading historical data...
Loading historical data...
Loading historical data...
Loading historical data...
Loading historical data...

Documentation

Showing up to 5 results
|